This is the latest recevied weather packets stored in our database for station/object KB1JLI. If no packets are shown the sender has not sent any weather packets the latest 10 day(s).
| Time | Temp. | Humidity | Pressure | Rain* | Wind** | Luminosity | Snow |
|---|---|---|---|---|---|---|---|
| 1778004726 | 27.78° C | 39% | 1006.6 hPa | 0 mm | - | 639 W/m² | - |
| 1778004422 | 27.78° C | 38% | 1006.7 hPa | 0 mm | - | 638 W/m² | - |
| 1778004119 | 27.78° C | 38% | 1006.8 hPa | 0 mm | - | 640 W/m² | - |
| 1778003815 | 28.33° C | 37% | 1006.8 hPa | 0 mm | - | 629 W/m² | - |
| 1778003512 | 27.78° C | 39% | 1006.9 hPa | 0 mm | - | 616 W/m² | - |
| 1778003208 | 27.78° C | 39% | 1007.1 hPa | 0 mm | - | 604 W/m² | - |
| 1778002904 | 27.78° C | 38% | 1007.2 hPa | 0 mm | - | 662 W/m² | - |
| 1778002601 | 27.78° C | 39% | 1007.2 hPa | 0 mm | - | 665 W/m² | - |
| 1778002298 | 27.78° C | 38% | 1007.5 hPa | 0 mm | - | 665 W/m² | - |
| 1778001996 | 27.78° C | 39% | 1007.4 hPa | 0 mm | - | 668 W/m² | - |
| 1778001692 | 27.22° C | 38% | 1007.7 hPa | 0 mm | - | 669 W/m² | - |
| 1778001392 | 27.22° C | 39% | 1007.8 hPa | 0 mm | - | 675 W/m² | - |
| 1778001090 | 27.78° C | 38% | 1007.7 hPa | 0 mm | - | 677 W/m² | - |
| 1778000787 | 26.67° C | 39% | 1007.7 hPa | 0 mm | - | 677 W/m² | - |
| 1778000483 | 27.22° C | 39% | 1007.7 hPa | 0 mm | - | 679 W/m² | - |
| 1778000178 | 26.67° C | 39% | 1007.7 hPa | 0 mm | - | 666 W/m² | - |
| 1777999874 | 26.67° C | 38% | 1007.9 hPa | 0 mm | - | 677 W/m² | - |
| 1777999570 | 26.11° C | 40% | 1007.9 hPa | 0 mm | - | 693 W/m² | - |
| 1777999268 | 26.67° C | 39% | 1008.2 hPa | 0 mm | - | 688 W/m² | - |
| 1777998966 | 26.11° C | 40% | 1008.5 hPa | 0 mm | - | 680 W/m² | - |
| 1777998663 | 25.56° C | 42% | 1008.5 hPa | 0 mm | - | 671 W/m² | - |
| 1777998360 | 25.56° C | 41% | 1008.6 hPa | 0 mm | - | 679 W/m² | - |
| 1777998058 | 25.56° C | 42% | 1008.7 hPa | 0 mm | - | 680 W/m² | - |
| 1777997755 | 25.56° C | 43% | 1008.7 hPa | 0 mm | - | 743 W/m² | - |
| 1777997452 | 25.56° C | 42% | 1008.8 hPa | 0 mm | - | 558 W/m² | - |
* Rain latest hour (hover to see other rain measurements)
** Current wind speed in m/s (hover to see current wind gust speed)